Home   Weather   Buffalo   Past weeks

Flag for USA Past Weather in Buffalo, New York, USA — Yesterday and Last 2 Weeks

Now
75 °F

Partly sunny.


Feels Like: 77 °F
Forecast: 52 / 69 °F
Wind: No wind

Location: Greater Buffalo International Airport

Current Time: May 23, 2017 at 6:33:07 pm

Latest Report: May 23, 2017 at 5:54 pm


Visibility: 10 mi

Pressure: 29.77 "Hg

Humidity: 36%

Dew Point: 46 °F

Location of BuffaloLocation

Past Weather in Buffalo — Graph

°F

Buffalo Temperature Yesterday

Maximum temperature yesterday: 62 °F (at 2:37 am)
Minimum temperature yesterday: 50 °F (at 11:54 pm)
Average temperature yesterday: 58 °F

High & Low Weather Summary for the Past Weeks

 TemperatureHumidityPressure
High82 °F (May 17, 4:54 pm)90% (May 14, 6:54 am)30.32 "Hg (May 14, 6:54 am)
Low34 °F (May 9, 5:54 am)35% (May 9, 4:54 pm)29.68 "Hg (May 14, 2:37 pm)
Average57 °F61%29.96 "Hg
* Reported May 8 4:54 pm — May 23 4:54 pm, Buffalo. Weather by CustomWeather, © 2017

Note: Actual official high and low records may vary slightly from our data, if they occured in-between our weather recording intervals... More about our weather records

Advertising

Buffalo Weather History for the Previous 24 Hours

Scroll right to see more
 ConditionsComfort  
Time TempWeatherWind HumidityBarometerVisibility
4:54 pm
Tue, May 23
75 °FScattered clouds.5 mph37%29.78 "Hg10 mi
3:54 pm73 °FScattered clouds.5 mph38%29.81 "Hg10 mi
2:54 pm72 °FScattered clouds.5 mph38%29.83 "Hg10 mi
1:54 pm70 °FPassing clouds.9 mph46%29.86 "Hg10 mi
12:54 pm69 °FPassing clouds.13 mph47%29.88 "Hg10 mi
11:54 am66 °FScattered clouds.12 mph49%29.90 "Hg10 mi
10:54 am64 °FPartly sunny.14 mph54%29.93 "Hg10 mi
9:54 am64 °FBroken clouds.13 mph54%29.92 "Hg10 mi
8:54 am61 °FBroken clouds.9 mph60%29.92 "Hg10 mi
7:54 am55 °FPartly sunny.5 mph74%29.93 "Hg10 mi
6:54 am50 °FPartly sunny.6 mph80%29.93 "Hg10 mi
5:54 am47 °FSunny.6 mph83%29.94 "Hg10 mi
4:54 am48 °FClear.6 mph80%29.94 "Hg10 mi
3:54 am49 °FPassing clouds.5 mph77%29.95 "Hg10 mi
2:54 am48 °FPassing clouds.6 mph80%29.96 "Hg10 mi
1:54 am49 °FPassing clouds.6 mph77%29.96 "Hg10 mi
12:54 am49 °FClear.6 mph77%29.98 "Hg10 mi
11:54 pm
Mon, May 22
50 °FPassing clouds.7 mph77%29.99 "Hg10 mi
10:54 pm52 °FPassing clouds.7 mph75%29.99 "Hg10 mi
9:54 pm52 °FPassing clouds.7 mph72%30.00 "Hg10 mi
8:54 pm53 °FPassing clouds.8 mph69%29.99 "Hg10 mi
7:54 pm55 °FPartly sunny.12 mph62%29.99 "Hg10 mi
6:54 pm56 °FPartly sunny.20 mph60%29.98 "Hg10 mi
Weather by CustomWeather, © 2017

See weather overviewHow to use our weather pages